Weather History for Sterling, IL

Change the Weather History Date:

Friday, May 11, 2012

  Actual Average Record
Temperature  
Mean Temperature 64 °F -  
Max Temperature 80 °F 68 °F 91 °F (2011)
Min Temperature 48 °F 48 °F 39 °F (2013)
Degree Days  
Heating Degree Days 1    
Growing Degree Days 14 (Base 50)    
Moisture  
Dew Point 46 °F    
Average Humidity 50    
Maximum Humidity 66    
Minimum Humidity 37    
Precipitation  
Precipitation 0.00 in - - ()
Sea Level Pressure  
Sea Level Pressure 30.08 in    
Wind  
Wind Speed 6 mph (South)    
Max Wind Speed 12 mph    
Max Gust Speed 22 mph    
Visibility 10 miles    
Events      
Averages and records for this station are not official NWS values.
T = Trace of Precipitation, MM = Missing Value Source: NWS Daily Summary

Daily Weather History Graph

Daily Weather History Graph

Search for Another Location

Airport:

Trip Planner

Search our weather history database for the weather conditions in past years. The results will help you decide how hot, cold, wet, or windy it might be!

Date:

Astronomy

May. 11, 2012 Rise Set
Actual Time 5:42 AM CDT 8:08 PM CDT
Civil Twilight 5:11 AM CDT 8:39 PM CDT
Nautical Twilight 4:32 AM CDT 9:18 PM CDT
Astronomical Twilight 3:48 AM CDT 10:02 PM CDT
Moon 12:47 AM CDT (5/11) 11:16 AM CDT (5/11)
Length of Visible Light 15h 28m
Length of Day
14h 25m
Waning Gibbous, 63% of the Moon is Illuminated
May 11
Waning Gibbous
May 12
Last Quarter
May 20
New
May 28
First Quarter
Jun 4
Full

Hourly Weather History & Observations

Time (CDT) Temp. Heat Index Dew Point Humidity Pressure Visibility Wind Dir Wind Speed Gust Speed Precip Events Conditions
12:15 AM 53.6 °F - 37.4 °F 54% 30.04 in 10.0 mi ESE 5.8 mph - N/A   Clear
12:35 AM 53.6 °F - 37.4 °F 54% 30.04 in 10.0 mi SE 4.6 mph - N/A   Clear
12:55 AM 51.8 °F - 37.4 °F 58% 30.05 in 10.0 mi ESE 4.6 mph - N/A   Clear
1:15 AM 51.8 °F - 37.4 °F 58% 30.05 in 10.0 mi SE 5.8 mph - N/A   Clear
1:35 AM 51.8 °F - 37.4 °F 58% 30.05 in 10.0 mi ESE 5.8 mph - N/A   Clear
1:55 AM 51.8 °F - 37.4 °F 58% 30.05 in 10.0 mi ESE 5.8 mph - N/A   Clear
2:55 AM 51.8 °F - 35.6 °F 54% 30.05 in 10.0 mi SE 5.8 mph - N/A   Clear
3:15 AM 50.0 °F - 35.6 °F 58% 30.06 in 10.0 mi SE 3.5 mph - N/A   Clear
3:35 AM 51.8 °F - 35.6 °F 54% 30.06 in 10.0 mi SE 5.8 mph - N/A   Clear
3:55 AM 50.0 °F - 35.6 °F 58% 30.06 in 10.0 mi ESE 4.6 mph - N/A   Clear
4:15 AM 48.2 °F - 35.6 °F 62% 30.07 in 10.0 mi ESE 5.8 mph - N/A   Clear
4:35 AM 50.0 °F - 35.6 °F 58% 30.06 in 10.0 mi ESE 5.8 mph - N/A   Clear
4:55 AM 50.0 °F - 35.6 °F 58% 30.07 in 10.0 mi ESE 6.9 mph - N/A   Clear
5:16 AM 48.2 °F - 35.6 °F 62% 30.07 in 10.0 mi SE 4.6 mph - N/A   Clear
5:35 AM 50.0 °F - 33.8 °F 54% 30.08 in 10.0 mi SE 4.6 mph - N/A   Clear
5:55 AM 48.2 °F - 35.6 °F 62% 30.08 in 10.0 mi ESE 4.6 mph - N/A   Clear
6:15 AM 48.2 °F - 37.4 °F 66% 30.09 in 10.0 mi ESE 4.6 mph - N/A   Clear
6:35 AM 51.8 °F - 37.4 °F 58% 30.09 in 10.0 mi ESE 5.8 mph - N/A   Clear
6:55 AM 53.6 °F - 37.4 °F 54% 30.10 in 10.0 mi SE 4.6 mph - N/A   Clear
7:15 AM 55.4 °F - 39.2 °F 54% 30.10 in 10.0 mi SSE 6.9 mph - N/A   Clear
7:35 AM 57.2 °F - 39.2 °F 51% 30.10 in 10.0 mi SE 9.2 mph - N/A   Clear
7:55 AM 59.0 °F - 41.0 °F 51% 30.10 in 10.0 mi SE 9.2 mph - N/A   Clear
8:15 AM 62.6 °F - 42.8 °F 48% 30.10 in 10.0 mi SSE 5.8 mph - N/A   Scattered Clouds
8:35 AM 64.4 °F - 44.6 °F 49% 30.10 in 10.0 mi South 6.9 mph - N/A   Mostly Cloudy
8:55 AM 64.4 °F - 46.4 °F 52% 30.10 in 10.0 mi South 4.6 mph - N/A   Partly Cloudy
9:15 AM 66.2 °F - 46.4 °F 49% 30.10 in 10.0 mi SSW 6.9 mph - N/A   Clear
9:35 AM 66.2 °F - 46.4 °F 49% 30.11 in 10.0 mi SSW 9.2 mph - N/A   Scattered Clouds
9:55 AM 68.0 °F - 48.2 °F 49% 30.10 in 10.0 mi SSW 5.8 mph - N/A   Overcast
10:15 AM 69.8 °F - 48.2 °F 46% 30.10 in 10.0 mi South 9.2 mph - N/A   Mostly Cloudy
10:35 AM 71.6 °F - 48.2 °F 43% 30.10 in 10.0 mi SSW 5.8 mph - N/A   Mostly Cloudy
10:55 AM 69.8 °F - 48.2 °F 46% 30.10 in 10.0 mi SSW 8.1 mph - N/A   Overcast
11:15 AM 71.6 °F - 48.2 °F 43% 30.09 in 10.0 mi South 9.2 mph - N/A   Mostly Cloudy
11:35 AM 73.4 °F - 48.2 °F 41% 30.09 in 10.0 mi SSE 3.5 mph - N/A   Scattered Clouds
11:55 AM 73.4 °F - 48.2 °F 41% 30.09 in 10.0 mi SSW 8.1 mph 19.6 mph N/A   Partly Cloudy
12:15 PM 75.2 °F - 48.2 °F 38% 30.09 in 10.0 mi SSW 6.9 mph 17.3 mph N/A   Partly Cloudy
12:35 PM 75.2 °F - 50.0 °F 41% 30.08 in 10.0 mi SSW 8.1 mph 17.3 mph N/A   Partly Cloudy
12:55 PM 75.2 °F - 50.0 °F 41% 30.08 in 10.0 mi SSW 8.1 mph - N/A   Clear
1:15 PM 77.0 °F - 50.0 °F 39% 30.08 in 10.0 mi SSW 6.9 mph - N/A   Clear
1:35 PM 78.8 °F - 51.8 °F 39% 30.07 in 10.0 mi SW 5.8 mph 16.1 mph N/A   Clear
1:55 PM 78.8 °F - 51.8 °F 39% 30.07 in 10.0 mi SW 8.1 mph 19.6 mph N/A   Clear
2:15 PM 78.8 °F - 51.8 °F 39% 30.06 in 10.0 mi SW 8.1 mph - N/A   Partly Cloudy
2:35 PM 78.8 °F - 51.8 °F 39% 30.06 in 10.0 mi South 11.5 mph 21.9 mph N/A   Clear
2:55 PM 80.6 °F 80.3 °F 53.6 °F 39% 30.05 in 10.0 mi SW 6.9 mph 16.1 mph N/A   Clear
3:15 PM 80.6 °F 80.3 °F 53.6 °F 39% 30.05 in 10.0 mi SW 9.2 mph 19.6 mph N/A   Clear
3:35 PM 80.6 °F - 51.8 °F 37% 30.05 in 10.0 mi South 4.6 mph - N/A   Clear
3:55 PM 80.6 °F 80.3 °F 53.6 °F 39% 30.04 in 10.0 mi SSW 8.1 mph - N/A   Clear
4:15 PM 80.6 °F 80.3 °F 53.6 °F 39% 30.04 in 10.0 mi SW 11.5 mph 17.3 mph N/A   Partly Cloudy
6:55 PM 77.0 °F - 51.8 °F 41% 30.05 in 10.0 mi SW 4.6 mph - N/A   Unknown
7:15 PM 75.2 °F - 51.8 °F 44% 30.05 in 10.0 mi SSW 4.6 mph - N/A   Clear
7:35 PM 75.2 °F - 53.6 °F 47% 30.05 in 10.0 mi SW 4.6 mph - N/A   Clear
7:55 PM 73.4 °F - 51.8 °F 47% 30.06 in 10.0 mi SSW 4.6 mph - N/A   Clear
8:15 PM 73.4 °F - 51.8 °F 47% 30.06 in 10.0 mi SW 3.5 mph - N/A   Clear
8:35 PM 71.6 °F - 51.8 °F 50% 30.06 in 10.0 mi South 4.6 mph - N/A   Clear
8:55 PM 71.6 °F - 51.8 °F 50% 30.07 in 10.0 mi SSW 3.5 mph - N/A   Clear
9:15 PM 71.6 °F - 51.8 °F 50% 30.08 in 10.0 mi SSW 4.6 mph - N/A   Clear
9:35 PM 69.8 °F - 51.8 °F 53% 30.09 in 10.0 mi SSW 4.6 mph - N/A   Partly Cloudy
9:55 PM 69.8 °F - 51.8 °F 53% 30.10 in 10.0 mi WSW 3.5 mph - N/A   Scattered Clouds
10:15 PM 69.8 °F - 51.8 °F 53% 30.10 in 10.0 mi SW 4.6 mph - N/A   Scattered Clouds
10:35 PM 69.8 °F - 51.8 °F 53% 30.10 in 10.0 mi Calm Calm - N/A   Scattered Clouds
10:55 PM 68.0 °F - 51.8 °F 56% 30.10 in 10.0 mi SSW 5.8 mph - N/A   Partly Cloudy
11:15 PM 68.0 °F - 51.8 °F 56% 30.11 in 10.0 mi WSW 4.6 mph - N/A   Clear
11:35 PM 66.2 °F - 51.8 °F 60% 30.11 in 10.0 mi WSW 4.6 mph - N/A   Clear
11:55 PM 66.2 °F - 53.6 °F 64% 30.11 in 10.0 mi WSW 3.5 mph - N/A   Clear